SILU-1 (SILKROAD 1) (42903 NORAD) Tracking and Keplerian Element Data

This shows tracking and keplerian element data for the satellite.

Feedback or suggestion? Click here.




ElementValue
Catalog42903
NameSILU-1 (SILKROAD 1)
Epoch Orbit8926
Epoch Day51.86423417
Epoch Year2019
RAAN243.3842
Inclination42.7697
Eccentricity0.0017669
Argument of Perigee283.0257
Mean Anonmoly213.9497
Mean Motion15.938142
Decay Rate0.00106618
L11 42903U 17021F 19051.86423417 .00106618 12517-4 28345-3 0 9997
L22 42903 42.7697 243.3842 0017669 283.0257 213.9497 15.93814200 89260

Live tracking and technical data element details for SILU-1 (SILKROAD 1) (NORAD 42903). SILU-1 (SILKROAD 1) can be tracked NOW for your location showing map with azimuth and elevation plus other details from your city location.

Track the satellite on the map from your city or location and see movement details for azimuth, elevation, latitude, longitude, range, height, and movement on the map or in text.







IsCatalogInMostPopularTable: catalog: 42903, numindb: 223
Update: records affected: 1



GetName: 42903 SILU-1 (SILKROAD 1)

Hit Count: updated at: Thu, 21 Feb 2019 12:40:18 GMT